Location: Tamazert
(32.6352°N, 5.2072°W)
Time: 04:31:53
(UTC+00:00)

Vanguard 2 Rocket - Pass Details

Date: 09 October 2022
Orbit: 555 x 3321 km, 32.9° (Epoch: 05 December)

Event Time Altitude Azimuth Distance (km) Brightness Sun altitude
Rises 20:53:01 0° 245° (WSW) 7,282 12.0 -37.8°
Reaches altitude 10° 20:57:57 10° 244° (WSW) 6,272 11.5 -38.8°
Maximum altitude 21:17:56 77° 162° (SSE) 2,809 9.0 -42.7°
Enters shadow 21:18:11 77° 155° (SSE) 2,798 8.9 -42.7°
Drops below altitude 10° 21:31:06 10° 79° (E) 4,369 - -45.2°
Sets 21:33:52 0° 78° (ENE) 5,063 - -45.7°
